Lid_Strength_Index
14 13 13 12 10 10 9 8 7 5 5 5 5 5 4 4 4 4 4 3 3 2 2 2 2 1 1
13 12 11 10 10 9 8 8 8 7 6 5 5 5 5 5 5 4 4 4 4 3 3 2 2 1 1
13 11 10 9 9 10 10 11 10 7 6 6 6 5 5 5 4 4 4 4 4 4 4 3 3 2 2
11 10 10 9 10 12 12 11 11 9 7 7 6 6 5 5 5 5 5 5 4 4 4 4 4 3 3
11 11 11 12 12 11 12 12 10 10 10 10 10 9 9 7 7 6 6 5 4 4 3 3 3 3 3
10 11 12 11 11 12 12 12 15 10 11 11 10 10 9 9 6 6 5 5 5 4 3 3 3 3 3
11 11 12 11 11 12 13 13 14 12 12 13 11 12 10 9 7 6 6 5 5 5 4 3 3 3 2
10 10 10 11 12 12 13 13 13 13 13 16 13 13 11 10 7 7 6 6 6 5 4 4 3 3 3
7 9 9 9 10 12 15 16 17 16 14 15 15 14 13 12 11 8 7 6 6 5 4 4 3 3 3
13 12 12 12 11 13 14 17 17 17 14 15 15 14 15 12 12 11 10 8 7 6 5 4 4 5 5
14 14 13 13 13 13 13 14 16 16 13 13 14 14 14 14 12 12 11 11 10 10 7 6 4 4 6
14 14 14 14 14 13 13 13 13 14 13 13 14 13 13 14 15 13 12 11 11 11 10 8 5 5 4
15 15 14 14 14 14 13 13 13 13 12 12 12 12 12 14 15 15 13 12 11 11 9 8 9 8 7
15 15 14 15 15 14 15 15 15 14 12 11 11 11 14 14 15 15 13 13 11 10 9 8 7 7 8
15 16 16 15 15 15 15 15 16 15 14 12 11 11 12 14 15 14 12 11 10 9 9 9 9 7 7
16 16 16 16 17 15 15 15 15 15 14 13 12 13 13 13 11 12 11 12 11 10 9 10 10 9 7
16 15 15 17 16 17 16 15 15 14 14 13 13 14 15 16 13 9 11 10 11 10 10 10 10 10 8